* Astronomy

Members Login
Username 
 
Password 
    Remember Me  
Post Info TOPIC: Asteroid 2016 CM137


L

Posts: 131433
Date:
Asteroid 2016 CM137
Permalink  
 


Orbital elements:
2016 CM137                                               Earth MOID = 0.0005 AU
Epoch 2016 Jan. 13.0 TT = JDT 2457400.5                 MPC
M   2.80785              (2000.0)            P               Q
n   0.33312550     Peri.  145.04622     -0.05484182     -0.99753145
a   2.0609342      Node   308.05738     +0.90294015     -0.03079535
e   0.5537881      Incl.    3.19292     +0.42625282     -0.06310830
P   2.96           H   25.8           G   0.15           U   6

MPEC 2016 - C130



__________________
Page 1 of 1  sorted by
 
Quick Reply

Please log in to post quick replies.



Create your own FREE Forum
Report Abuse
Powered by ActiveBoard